This is the latest recevied weather packets stored in our database for station/object HASTNG-WX. If no packets are shown the sender has not sent any weather packets the latest 10 day(s).
| Time | Temp. | Humidity | Pressure | Rain* | Wind** | Luminosity | Snow |
|---|---|---|---|---|---|---|---|
| 1778220932 | 5° C | 84% | 982 hPa | 0 mm | - | - | - |
| 1778220070 | 5° C | 84% | 982 hPa | 0 mm | - | - | - |
| 1778219131 | 5° C | 81% | 982.8 hPa | 0 mm | - | - | - |
| 1778218252 | 5.56° C | 82% | 982.5 hPa | 0 mm | - | - | - |
| 1778217331 | 5.56° C | 82% | 982.5 hPa | 0 mm | - | - | - |
| 1778216461 | 5.56° C | 82% | 982.5 hPa | 0 mm | - | - | - |
| 1778215531 | 5.56° C | 80% | 982.6 hPa | 0 mm | - | - | - |
| 1778214647 | 5.56° C | 77% | 982 hPa | 0 mm | - | - | - |
| 1778213731 | 5.56° C | 77% | 982 hPa | 0 mm | - | - | - |
| 1778212867 | 6.11° C | 77% | 982 hPa | 0 mm | - | - | - |
| 1778211930 | 6.11° C | 72% | 982.1 hPa | 0 mm | - | - | - |
| 1778211046 | 6.11° C | 74% | 982.6 hPa | 0 mm | - | - | - |
| 1778210130 | 6.67° C | 74% | 982.6 hPa | 0 mm | - | - | - |
| 1778209257 | 6.67° C | 74% | 982.6 hPa | 0 mm | - | - | - |
| 1778208329 | 7.22° C | 65% | 982 hPa | 0 mm | - | - | - |
| 1778207450 | 7.22° C | 59% | 982.5 hPa | 0 mm | - | - | - |
| 1778206529 | 7.22° C | 59% | 982.5 hPa | 0 mm | - | - | - |
| 1778205657 | 7.78° C | 59% | 982.5 hPa | 0 mm | - | - | - |
| 1778204731 | 7.78° C | 48% | 982.2 hPa | 0 mm | - | - | - |
| 1778203847 | 8.33° C | 48% | 982.2 hPa | 0 mm | - | - | - |
| 1778202931 | 10° C | 48% | 982.2 hPa | 0 mm | - | - | - |
| 1778202053 | 10° C | 48% | 982.2 hPa | 0 mm | - | - | - |
| 1778201130 | 10° C | 42% | 982.9 hPa | 0 mm | - | - | - |
| 1778200247 | 10.56° C | 45% | 982.9 hPa | 0 mm | - | - | - |
| 1778199329 | 10° C | 45% | 982.8 hPa | 0 mm | - | - | - |
* Rain latest hour (hover to see other rain measurements)
** Current wind speed in m/s (hover to see current wind gust speed)